(33865) = 1990 UE14 = 2000 JX15

Discovered at Socorro on 2000-05-04 by LINEAR.

Orbit

Orbit type: Mars-crosser

Note: WebGL enabled browser required.

epoch2024-03-31.0
epoch JD2460400.5
perihelion date2021-09-04.52486
perihelion JD2459462.02487
argument of perihelion (°)254.14514
ascending node (°)82.84705
inclination (°)26.83983
eccentricity0.1366217
perihelion distance (AU)1.6271745
Tisserand w.r.t. Jupiter3.8
ΔV w.r.t. Earth (km/sec)11.6
semimajor axis (AU)1.8846600
mean anomaly (°)357.50104
mean daily motion (°/day)0.38093820
aphelion distance (AU)2.142
period (years)2.59
P-vector [x]0.81762856
P-vector [y]-0.17400169
P-vector [z]-0.54882324
Q-vector [x]0.36165423
Q-vector [y]0.89692593
Q-vector [z]0.25442109
absolute magnitude15.98
phase slope0.15
uncertainty0
referenceE2024-G51
observations used1350
oppositions17
arc length (days)11945
first opposition used1990
last opposition used2023
residual rms (arc-secs)0.74
perturbers coarse indicatorM-v
perturbers precise indicator003Ek
first observation date used1990-10-17.0
last observation date used2023-07-01.0
computer nameMPCLINUX
JD of orbit computation2456494.395225
perihelion JD uncertainty (days)8.5531E-05
argument of perihelion uncertainty (°)3.3702E-05
ascending node uncertainty (°)9.9230E-06
inclination uncertainty (°)9.5878E-06
eccentricity uncertainty 4.2332E-08
perihelion distance uncertainty (AU)7.7975E-08
Minimum Orbit Intersection Distances (in AU)
for orbit epoch: 2460400.5, reference: E2024-G51
Mercury1.22979
Venus0.97369
Earth0.72506
Mars0.30304
Jupiter3.16998
Saturn7.07491
Uranus16.5293
Neptune28.0256

Observations

1380 total observations over interval: 1990 10 17.53866 – 2023 07 01.224119
These data are available for download (format description).

Date (UT) J2000 RA J2000 Dec Magn Location Ref
1990 10 17.53866 00 57 05.07 -51 34 16.7 18 V 413 – Siding Spring Observatory MPC 23174
1990 10 17.59074 00 57 00.47 -51 33 22.6   413 – Siding Spring Observatory MPC 23174
1998 11 13.43570 04 59 54.23 +00 42 38.2 18.4   704 – Lincoln Laboratory ETS, New Mexico MPS 22342
1998 11 13.44549 04 59 53.29 +00 42 47.4 18.4   704 – Lincoln Laboratory ETS, New Mexico MPS 22342
1998 11 13.45533 04 59 52.41 +00 42 56.0 18.4   704 – Lincoln Laboratory ETS, New Mexico MPS 22342
1998 11 13.46522 04 59 51.64 +00 43 01.4 19.0   704 – Lincoln Laboratory ETS, New Mexico MPS 22342
1998 12 16.23671 04 04 53.66 +10 34 55.4 17.6 R 699 – Lowell Observatory-LONEOS MPS 22342
1998 12 16.26222 04 04 51.35 +10 35 27.7   699 – Lowell Observatory-LONEOS MPS 22342
1998 12 16.28775 04 04 49.05 +10 35 58.3   699 – Lowell Observatory-LONEOS MPS 22342
1998 12 27.17495 03 51 25.66 +14 09 34.0 18.3 V 691 – Steward Observatory, Kitt Peak-Spacewatch MPS 81027
1998 12 27.19720 03 51 24.29 +14 09 59.3 18.6 V 691 – Steward Observatory, Kitt Peak-Spacewatch MPS 81027
1998 12 27.21922 03 51 22.93 +14 10 24.4 18.4 V 691 – Steward Observatory, Kitt Peak-Spacewatch MPS 81027
1999 01 22.16522 03 42 08.20 +21 28 48.3 18.8 R 699 – Lowell Observatory-LONEOS MPS 59467
1999 01 22.19065 03 42 08.42 +21 29 11.6   699 – Lowell Observatory-LONEOS MPS 59467
1999 01 22.21614 03 42 08.75 +21 29 33.6   699 – Lowell Observatory-LONEOS MPS 59467
2000 05 04.32700 16 44 02.74 +03 32 33.5 18.0   704 – Lincoln Laboratory ETS, New Mexico MPS 14700
2000 05 04.35166 16 44 01.03 +03 32 25.4 18.1   704 – Lincoln Laboratory ETS, New Mexico MPS 14700
2000 05 04.36367 16 44 00.24 +03 32 21.7 18.1   704 – Lincoln Laboratory ETS, New Mexico MPS 14700
2000 05 04.37569 16 43 59.43 +03 32 17.7 18.4   704 – Lincoln Laboratory ETS, New Mexico MPS 14700
2000 05 08.31954 16 39 25.866 +03 06 13.86 16.73 J I02 – Cerro Tololo Observatory, La Serena--2MASS MPS 81027
2000 05 11.26651 16 35 38.50 +02 42 25.7 17.6   704 – Lincoln Laboratory ETS, New Mexico MPS 14700
2000 05 11.28039 16 35 37.37 +02 42 18.6 18.0   704 – Lincoln Laboratory ETS, New Mexico MPS 14700
2000 05 11.29260 16 35 36.32 +02 42 11.9 17.8   704 – Lincoln Laboratory ETS, New Mexico MPS 14700
2000 05 11.31648 16 35 34.31 +02 42 00.5 17.9   704 – Lincoln Laboratory ETS, New Mexico MPS 14700
2000 05 28.30707 16 08 58.85 -00 47 10.3 18.1   704 – Lincoln Laboratory ETS, New Mexico MPS 15874
2000 05 28.32310 16 08 57.20 -00 47 25.3 18.4   704 – Lincoln Laboratory ETS, New Mexico MPS 15874
2000 05 28.34200 16 08 55.21 -00 47 43.1 18.1   704 – Lincoln Laboratory ETS, New Mexico MPS 15874
2000 05 28.35624 16 08 53.74 -00 47 56.8 18.4   704 – Lincoln Laboratory ETS, New Mexico MPS 15874
2000 05 28.37055 16 08 52.16 -00 48 09.9 18.5   704 – Lincoln Laboratory ETS, New Mexico MPS 15874
2000 05 28.94631 16 07 53.85 -00 57 27.1   611 – Starkenburg Sternwarte, Heppenheim MPS 15874
2000 05 28.94957 16 07 53.51 -00 57 29.7   611 – Starkenburg Sternwarte, Heppenheim MPS 15874
2000 05 28.95250 16 07 53.27 -00 57 31.7   611 – Starkenburg Sternwarte, Heppenheim MPS 15874
2000 05 29.12483 16 07 36.12 -01 00 12.1 18.4 V 739 – Sunflower Observatory, Olathe MPS 15874
2000 05 29.14545 16 07 34.04 -01 00 36.4 19.0 V 719 – Etscorn Observatory MPS 15874
2000 05 29.15501 16 07 32.64 -01 00 46.1 18.3 V 739 – Sunflower Observatory, Olathe MPS 15874
2000 05 29.15870 16 07 32.42 -01 00 47.3 18.1 V 739 – Sunflower Observatory, Olathe MPS 15874
2000 05 29.17219 16 07 30.87 -01 01 02.9 19.4 V 719 – Etscorn Observatory MPS 15874
2000 05 29.29744 16 07 17.98 -01 03 04.5 17.7   704 – Lincoln Laboratory ETS, New Mexico MPS 15874
2000 05 29.31268 16 07 16.21 -01 03 19.1 18.7   704 – Lincoln Laboratory ETS, New Mexico MPS 15874
2000 05 29.31552 16 07 16.08 -01 03 22.4 17.5 R 858 – Tebbutt Observatory, Edgewood MPS 15874
2000 05 29.31924 16 07 15.68 -01 03 26.0 17.4 R 858 – Tebbutt Observatory, Edgewood MPS 15874
2000 05 29.32186 16 07 15.37 -01 03 29.9 19.4 V 734 – Farpoint Observatory, Eskridge MPS 15874
2000 05 29.32343 16 07 15.14 -01 03 30.9 17.5 R 858 – Tebbutt Observatory, Edgewood MPS 15874
2000 05 29.32698 16 07 14.87 -01 03 33.2 17.7   704 – Lincoln Laboratory ETS, New Mexico MPS 15874
2000 05 29.32725 16 07 14.79 -01 03 35.1 19.3 V 734 – Farpoint Observatory, Eskridge MPS 15874
2000 05 29.33079 16 07 14.41 -01 03 38.6 19.4 V 734 – Farpoint Observatory, Eskridge MPS 15874
2000 05 29.34117 16 07 13.38 -01 03 46.8 17.7   704 – Lincoln Laboratory ETS, New Mexico MPS 15874
2000 05 29.35223 16 07 12.35 -01 03 57.7   670 – Camarillo MPS 15874
2000 05 29.35605 16 07 11.82 -01 04 01.7 17.9   704 – Lincoln Laboratory ETS, New Mexico MPS 15874
2000 05 29.41832 16 07 05.45 -01 05 01.9   670 – Camarillo MPS 15874
2000 05 29.67681 16 06 39.15 -01 09 17.1 18.5 V 402 – Dynic Astronomical Observatory MPS 15874
2000 05 29.67805 16 06 38.94 -01 09 17.9   402 – Dynic Astronomical Observatory MPS 15874
2000 05 29.67933 16 06 38.86 -01 09 19.1   402 – Dynic Astronomical Observatory MPS 15874
2000 05 29.68059 16 06 38.71 -01 09 20.3   402 – Dynic Astronomical Observatory MPS 15874
2000 05 29.92191 16 06 14.42 -01 13 19.6   557 – Ondrejov MPS 15874
2000 05 29.92424 16 06 14.19 -01 13 22.0   557 – Ondrejov MPS 15874
2000 05 29.98328 16 06 08.03 -01 14 20.3   611 – Starkenburg Sternwarte, Heppenheim MPS 15874
2000 05 29.98652 16 06 07.72 -01 14 23.4   611 – Starkenburg Sternwarte, Heppenheim MPS 15875
2000 05 29.99032 16 06 07.33 -01 14 27.3   611 – Starkenburg Sternwarte, Heppenheim MPS 15875
2000 05 30.02433 16 06 03.70 -01 15 00.6 17.1 R 046 – Klet Observatory, Ceske Budejovice MPS 15875
2000 05 30.02546 16 06 03.61 -01 15 01.7   046 – Klet Observatory, Ceske Budejovice MPS 15875
2000 05 30.02661 16 06 03.48 -01 15 03.3   046 – Klet Observatory, Ceske Budejovice MPS 15875
2000 05 30.02757 16 06 03.38 -01 15 03.8   046 – Klet Observatory, Ceske Budejovice MPS 15875
2000 05 30.13285 16 05 52.77 -01 16 37.4 19.2 V 860 – Valinhos MPS 15875
2000 05 30.13513 16 05 52.58 -01 16 40.4 19.5 V 860 – Valinhos MPS 15875
2000 05 30.13743 16 05 52.30 -01 16 42.8 19.2 V 860 – Valinhos MPS 15875
2000 05 30.13971 16 05 52.08 -01 16 45.6 19.1 V 860 – Valinhos MPS 15875
2000 05 30.14200 16 05 51.89 -01 16 47.0 19.1 V 860 – Valinhos MPS 15875
2000 05 30.14921 16 05 51.04 -01 16 54.9 19.0 V 860 – Valinhos MPS 15875
2000 05 30.15435 16 05 50.51 -01 16 59.0 18.6 V 860 – Valinhos MPS 15875
2000 05 30.25479 16 05 40.69 -01 18 48.5   670 – Camarillo MPS 15875
2000 05 30.29621 16 05 36.12 -01 19 28.4 17.5   704 – Lincoln Laboratory ETS, New Mexico MPS 15875
2000 05 30.30989 16 05 34.70 -01 19 42.4 19.2   704 – Lincoln Laboratory ETS, New Mexico MPS 15875
2000 05 30.32324 16 05 33.29 -01 19 55.7 17.5   704 – Lincoln Laboratory ETS, New Mexico MPS 15875
2000 05 30.33660 16 05 31.91 -01 20 09.2 17.4   704 – Lincoln Laboratory ETS, New Mexico MPS 15875
2000 05 30.33782 16 05 31.84 -01 20 09.9   670 – Camarillo MPS 15875
2000 05 30.34997 16 05 30.52 -01 20 22.1 18.5   704 – Lincoln Laboratory ETS, New Mexico MPS 15875
2000 05 30.41631 16 05 23.67 -01 21 28.6   670 – Camarillo MPS 15875
2000 06 04.21789 15 57 18.49 -02 45 24.9 16.0   704 – Lincoln Laboratory ETS, New Mexico MPS 15875
2000 06 04.23092 15 57 17.14 -02 45 39.5 15.7   704 – Lincoln Laboratory ETS, New Mexico MPS 15875
2000 06 04.24394 15 57 15.81 -02 45 53.7 15.6   704 – Lincoln Laboratory ETS, New Mexico MPS 15875
2000 06 04.25709 15 57 14.48 -02 46 07.8 15.6   704 – Lincoln Laboratory ETS, New Mexico MPS 15875
2000 06 10.22405 15 47 38.11 -04 40 05.9 18.2   704 – Lincoln Laboratory ETS, New Mexico MPS 15875
2000 06 10.23680 15 47 36.90 -04 40 20.0 18.7   704 – Lincoln Laboratory ETS, New Mexico MPS 15875
2000 06 10.26227 15 47 34.45 -04 40 50.4 18.4   704 – Lincoln Laboratory ETS, New Mexico MPS 15875
2001 12 09.39378 10 24 52.55 +34 04 54.3 19.4   704 – Lincoln Laboratory ETS, New Mexico MPS 43210
2001 12 09.40882 10 24 53.43 +34 05 08.4 19.5   704 – Lincoln Laboratory ETS, New Mexico MPS 43210
2001 12 09.42385 10 24 54.27 +34 05 22.8 19.9   704 – Lincoln Laboratory ETS, New Mexico MPS 43210
2001 12 09.43884 10 24 55.17 +34 05 35.2 19.7   704 – Lincoln Laboratory ETS, New Mexico MPS 43210
